DW0494 Weather Reports


Display with metric or nautical units.
time (UTC)temp
F
wind
direction
speed
MPH
gust
MPH
rain 1hr
in
rain 24hr
in
rain mn
in
humidity
%
barometer
mb
20240228003904 53 55 1.0 2.0 0.00 0.00 0.00 76 1022.5
20240228003404 53 56 0.0 0.0 0.00 0.00 0.00 78 1022.6
20240228002904 53 56 0.0 0.0 0.00 0.00 0.00 79 1022.5
20240228002404 53 31 0.0 0.0 0.00 0.00 0.00 80 1022.6
20240228001904 53 31 0.0 0.0 0.00 0.00 0.00 81 1022.6
20240228001404 53 31 0.0 0.0 0.00 0.00 0.00 82 1022.6
20240228000904 53 31 0.0 0.0 0.00 0.00 0.00 82 1022.7
20240228000404 53 31 0.0 0.0 0.00 0.00 0.00 83 1022.8
20240227235904 53 31 0.0 0.0 0.00 0.00 0.00 84 1022.7
20240227235404 53 31 0.0 0.0 0.00 0.00 0.00 84 1022.7
20240227234904 52 31 0.0 1.0 0.00 0.00 0.00 83 1022.7
20240227234404 53 31 0.0 1.0 0.00 0.00 0.00 83 1022.6
20240227233904 53 31 0.0 2.0 0.00 0.00 0.00 83 1022.6
20240227233404 53 30 0.0 2.0 0.00 0.00 0.00 84 1022.5
20240227232404 53 55 0.0 2.0 0.00 0.00 0.00 85 1022.6
20240227231904 53 55 0.0 2.0 0.00 0.00 0.00 85 1022.7
20240227231404 53 65 0.0 2.0 0.00 0.00 0.00 85 1022.7
20240227230904 53 78 0.0 1.0 0.00 0.00 0.00 86 1022.6
20240227230404 52 78 0.0 1.0 0.00 0.00 0.00 87 1022.5
20240227225904 52 78 0.0 1.0 0.00 0.00 0.00 85 1022.6
20240227225404 52 78 0.0 1.0 0.00 0.00 0.00 85 1022.5
20240227224904 53 77 0.0 1.0 0.00 0.00 0.00 87 1022.5
20240227224404 52 77 0.0 2.0 0.00 0.00 0.00 86 1022.5
20240227223904 52 77 0.0 2.0 0.00 0.00 0.00 86 1022.5
20240227223404 52 80 0.0 2.0 0.00 0.00 0.00 85 1022.5
20240227222904 53 53 1.0 2.0 0.00 0.00 0.00 86 1022.4
20240227222404 52 63 1.0 2.0 0.00 0.00 0.00 85 1022.3
20240227221904 53 64 1.0 1.0 0.00 0.00 0.00 84 1022.3
20240227221404 53 67 0.0 2.0 0.00 0.00 0.00 85 1022.3
20240227220903 53 68 1.0 2.0 0.00 0.00 0.00 85 1022.2
20240227220404 53 74 0.0 0.0 0.00 0.00 0.00 85 1022.2
20240227215903 53 44 0.0 0.0 0.00 0.00 0.00 85 1022.2
20240227215404 53 44 0.0 1.0 0.00 0.00 0.00 85 1022.2
20240227214903 53 44 0.0 2.0 0.00 0.00 0.00 85 1022.1
20240227214403 53 44 0.0 2.0 0.00 0.00 0.00 85 1022.1
20240227213403 53 32 0.0 1.0 0.00 0.00 0.00 86 1022.0
20240227212903 53 32 0.0 0.0 0.00 0.00 0.00 85 1021.9
20240227212403 53 32 0.0 0.0 0.00 0.00 0.00 86 1022.0
20240227211904 53 33 0.0 0.0 0.00 0.00 0.00 85 1022.0
20240227211404 53 33 0.0 0.0 0.00 0.00 0.00 85 1022.0
20240227210904 53 33 0.0 0.0 0.00 0.00 0.00 86 1022.0
20240227210404 54 33 0.0 0.0 0.00 0.00 0.00 86 1022.0
20240227205904 53 33 0.0 0.0 0.00 0.00 0.00 86 1021.9
20240227205404 54 33 0.0 0.0 0.00 0.00 0.00 86 1021.9
20240227204404 54 33 0.0 0.0 0.00 0.00 0.00 85 1022.0
20240227203404 54 33 0.0 0.0 0.00 0.00 0.00 85 1022.0
20240227202904 54 33 0.0 0.0 0.00 0.00 0.00 85 1022.0
20240227201904 54 33 0.0 0.0 0.00 0.00 0.00 85 1022.0
20240227201404 54 33 0.0 0.0 0.00 0.00 0.00 86 1022.0
20240227200903 54 33 0.0 0.0 0.00 0.00 0.00 85 1022.0
20240227200404 54 33 0.0 0.0 0.00 0.00 0.00 85 1022.0
20240227195904 55 32 0.0 1.0 0.00 0.00 0.00 85 1021.9
20240227195404 55 32 0.0 2.0 0.00 0.00 0.00 85 1021.8
20240227194904 55 40 0.0 3.0 0.00 0.00 0.00 86 1021.7
20240227194404 55 41 1.0 3.0 0.00 0.00 0.00 86 1021.7
20240227193904 54 33 1.0 2.0 0.00 0.00 0.00 86 1021.8
20240227192903 54 8 0.0 0.0 0.00 0.00 0.00 86 1021.7
20240227192403 54 8 0.0 0.0 0.00 0.00 0.00 86 1021.7
20240227191903 54 8 0.0 0.0 0.00 0.00 0.00 86 1021.7
20240227191403 54 36 0.0 1.0 0.00 0.00 0.00 86 1021.7
20240227190904 54 37 0.0 1.0 0.00 0.00 0.00 85 1021.7
20240227185903 54 63 0.0 0.0 0.00 0.00 0.00 84 1021.6
20240227185403 54 63 0.0 0.0 0.00 0.00 0.00 85 1021.7
20240227184903 54 63 0.0 0.0 0.00 0.00 0.00 85 1021.7
20240227184403 54 63 0.0 0.0 0.00 0.00 0.00 85 1021.8
20240227183904 54 63 0.0 0.0 0.00 0.00 0.00 85 1021.8
20240227183403 54 63 0.0 0.0 0.00 0.00 0.00 85 1021.7
20240227182903 54 63 0.0 0.0 0.00 0.00 0.00 85 1021.7
20240227182403 54 63 0.0 0.0 0.00 0.00 0.00 84 1021.6
20240227180904 54 63 0.0 1.0 0.00 0.00 0.00 85 1021.5
20240227180405 54 63 0.0 0.0 0.00 0.00 0.00 85 1021.5
20240227175903 54 63 0.0 0.0 0.00 0.00 0.00 85 1021.4
20240227175404 54 63 0.0 0.0 0.00 0.00 0.00 85 1021.4
20240227174904 54 63 0.0 0.0 0.00 0.00 0.00 84 1021.3
20240227174404 54 62 0.0 1.0 0.00 0.00 0.00 83 1021.2
20240227173904 55 62 0.0 1.0 0.00 0.00 0.00 84 1021.1
20240227172904 55 63 0.0 0.0 0.00 0.00 0.00 83 1020.9
20240227171904 56 63 0.0 1.0 0.00 0.00 0.00 83 1020.8
20240227171404 56 63 0.0 1.0 0.00 0.00 0.00 83 1020.7
20240227170903 55 136 0.0 1.0 0.00 0.00 0.00 83 1020.6
20240227170403 55 163 0.0 0.0 0.00 0.00 0.00 83 1020.6
20240227165903 55 163 0.0 0.0 0.00 0.00 0.00 82 1020.6
20240227164904 56 163 0.0 0.0 0.00 0.00 0.00 81 1020.6
20240227164403 56 163 0.0 0.0 0.00 0.00 0.00 80 1020.6
20240227163903 56 163 0.0 0.0 0.00 0.00 0.00 80 1020.5
20240227163404 57 163 0.0 0.0 0.00 0.00 0.00 79 1020.5
20240227162904 57 163 0.0 0.0 0.00 0.00 0.00 79 1020.4
20240227162404 57 164 0.0 1.0 0.00 0.00 0.00 79 1020.5
20240227161903 58 164 0.0 1.0 0.00 0.00 0.00 78 1020.5
20240227161404 58 141 0.0 0.0 0.00 0.00 0.00 78 1020.4
20240227160903 58 141 0.0 1.0 0.00 0.00 0.00 77 1020.4
20240227160403 59 141 0.0 2.0 0.00 0.00 0.00 76 1020.4
20240227154904 60 206 0.0 3.0 0.00 0.00 0.00 75 1020.3
20240227154403 60 161 0.0 3.0 0.00 0.00 0.00 74 1020.2
20240227153904 60 104 1.0 3.0 0.00 0.00 0.00 75 1020.2
20240227152904 61 217 2.0 3.0 0.00 0.00 0.00 74 1020.2
20240227152404 62 220 1.0 3.0 0.00 0.00 0.00 73 1020.1
20240227151404 63 219 2.0 7.0 0.00 0.00 0.00 71 1019.9
20240227150904 64 198 2.0 6.0 0.00 0.00 0.00 70 1019.9
20240227150403 64 168 2.0 5.0 0.00 0.00 0.00 69 1019.9
20240227145907 65 115 1.0 7.0 0.00 0.00 0.00 68 1019.9
20240227145403 65 206 2.0 7.0 0.00 0.00 0.00 67 1019.9
20240227144903 65 204 2.0 10.0 0.00 0.00 0.00 68 1019.9
20240227144404 65 200 3.0 10.0 0.00 0.00 0.00 67 1019.8
20240227143904 65 209 2.0 9.0 0.00 0.00 0.00 67 1019.8
20240227143403 66 208 5.0 9.0 0.00 0.00 0.00 66 1019.7
20240227142903 66 194 2.0 8.0 0.00 0.00 0.00 66 1019.7
20240227142404 66 163 3.0 7.0 0.00 0.00 0.00 67 1019.7
20240227141904 66 212 2.0 12.0 0.00 0.00 0.00 67 1019.6
20240227141404 66 192 2.0 12.0 0.00 0.00 0.00 67 1019.6
20240227140905 66 205 3.0 9.0 0.00 0.00 0.00 67 1019.6
20240227140404 66 198 5.0 9.0 0.00 0.00 0.00 67 1019.5
20240227135903 67 202 3.0 10.0 0.00 0.00 0.00 66 1019.6
20240227135403 67 199 4.0 10.0 0.00 0.00 0.00 65 1019.6
20240227134904 67 208 3.0 9.0 0.00 0.00 0.00 65 1019.6
20240227134403 67 206 5.0 10.0 0.00 0.00 0.00 63 1019.5
20240227133903 68 203 6.0 10.0 0.00 0.00 0.00 59 1019.5
20240227133404 68 217 3.0 10.0 0.00 0.00 0.00 60 1019.6
20240227132404 69 194 3.0 8.0 0.00 0.00 0.00 60 1019.6
20240227131904 68 211 3.0 8.0 0.00 0.00 0.00 60 1019.6
20240227131404 68 204 5.0 10.0 0.00 0.00 0.00 62 1019.5
20240227130903 68 191 5.0 10.0 0.00 0.00 0.00 62 1019.6
20240227130403 69 207 5.0 10.0 0.00 0.00 0.00 60 1019.4
20240227125904 69 215 3.0 10.0 0.00 0.00 0.00 60 1019.4
20240227125404 69 216 5.0 10.0 0.00 0.00 0.00 59 1019.6
20240227124904 69 194 2.0 8.0 0.00 0.00 0.00 58 1019.5
20240227124404 69 222 4.0 7.0 0.00 0.00 0.00 59 1019.6
20240227123904 69 190 5.0 7.0 0.00 0.00 0.00 58 1019.6
20240227123404 69 174 3.0 7.0 0.00 0.00 0.00 58 1019.5
20240227122903 68 213 2.0 7.0 0.00 0.00 0.00 59 1019.5
20240227122403 68 203 3.0 7.0 0.00 0.00 0.00 59 1019.5
20240227121404 69 231 2.0 8.0 0.00 0.00 0.00 58 1019.5
20240227120904 69 214 3.0 8.0 0.00 0.00 0.00 58 1019.6
20240227120404 68 201 4.0 8.0 0.00 0.00 0.00 59 1019.6
20240227115904 68 237 3.0 6.0 0.00 0.00 0.00 58 1019.7
20240227115405 68 217 3.0 6.0 0.00 0.00 0.00 58 1019.7
20240227114904 68 223 2.0 7.0 0.00 0.00 0.00 61 1019.8
20240227113904 67 191 2.0 6.0 0.00 0.00 0.00 61 1019.8
20240227113403 67 231 2.0 6.0 0.00 0.00 0.00 60 1019.9
20240227112903 67 217 2.0 6.0 0.00 0.00 0.00 62 1019.9
20240227112403 68 220 1.0 5.0 0.00 0.00 0.00 59 1020.0
20240227111404 67 283 2.0 7.0 0.00 0.00 0.00 61 1020.0
20240227110903 67 239 2.0 7.0 0.00 0.00 0.00 61 1020.1
20240227110404 67 205 2.0 3.0 0.00 0.00 0.00 60 1020.0
20240227105905 66 222 2.0 7.0 0.00 0.00 0.00 61 1020.1
20240227105403 67 215 2.0 7.0 0.00 0.00 0.00 60 1020.1
20240227104903 67 229 3.0 5.0 0.00 0.00 0.00 61 1020.2
20240227104403 67 231 2.0 5.0 0.00 0.00 0.00 60 1020.2
20240227103903 67 219 3.0 5.0 0.00 0.00 0.00 60 1020.2
20240227103404 67 236 2.0 5.0 0.00 0.00 0.00 61 1020.2
20240227102904 66 219 2.0 6.0 0.00 0.00 0.00 63 1020.2
20240227102404 66 210 3.0 6.0 0.00 0.00 0.00 62 1020.3
20240227101903 66 264 2.0 5.0 0.00 0.00 0.00 62 1020.2
20240227101403 66 224 2.0 7.0 0.00 0.00 0.00 62 1020.2
20240227100404 67 239 2.0 6.0 0.00 0.00 0.00 61 1020.3
20240227095904 66 253 2.0 6.0 0.00 0.00 0.00 62 1020.2
20240227095403 66 189 1.0 6.0 0.00 0.00 0.00 61 1020.3
20240227094904 67 208 2.0 6.0 0.00 0.00 0.00 57 1020.2
20240227093904 66 229 2.0 7.0 0.00 0.00 0.00 56 1020.3
20240227093404 66 210 4.0 7.0 0.00 0.00 0.00 56 1020.4
20240227092404 67 186 1.0 3.0 0.00 0.00 0.00 57 1020.3
20240227091904 66 188 2.0 5.0 0.00 0.00 0.00 57 1020.2
20240227091403 66 204 3.0 6.0 0.00 0.00 0.00 56 1020.2
20240227090904 65 210 2.0 6.0 0.00 0.00 0.00 58 1020.2
20240227090404 65 207 3.0 6.0 0.00 0.00 0.00 59 1020.1
20240227085904 65 188 2.0 6.0 0.00 0.00 0.00 60 1020.1
20240227085404 65 217 3.0 8.0 0.00 0.00 0.00 61 1020.0
20240227084903 65 205 2.0 8.0 0.00 0.00 0.00 60 1019.9
20240227084403 66 204 4.0 8.0 0.00 0.00 0.00 59 1019.8
20240227083904 66 212 3.0 6.0 0.00 0.00 0.00 56 1019.7
20240227083404 67 203 2.0 6.0 0.00 0.00 0.00 56 1019.7
20240227082904 67 217 2.0 6.0 0.00 0.00 0.00 55 1019.6
20240227082404 67 208 1.0 3.0 0.00 0.00 0.00 54 1019.5
20240227081904 67 201 1.0 3.0 0.00 0.00 0.00 55 1019.5
20240227081404 67 30 1.0 3.0 0.00 0.00 0.00 55 1019.4
20240227080904 67 128 0.0 2.0 0.00 0.00 0.00 55 1019.3
20240227080404 67 108 0.0 2.0 0.00 0.00 0.00 57 1019.4
20240227075904 66 189 0.0 1.0 0.00 0.00 0.00 64 1019.5
20240227075403 65 180 0.0 1.0 0.00 0.00 0.00 66 1019.5
20240227074903 64 331 0.0 1.0 0.00 0.00 0.00 66 1019.6
20240227074404 63 330 0.0 1.0 0.00 0.00 0.00 67 1019.6
20240227073904 63 252 0.0 1.0 0.00 0.00 0.00 67 1019.7
20240227073404 53 0 0.0 0.0 0.00 0.00 0.00 84 1019.6
20240227072904 53 0 0.0 0.0 0.00 0.00 0.00 84 1019.6
20240227072404 53 0 0.0 0.0 0.00 0.00 0.00 84 1019.7
20240227071904 53 0 0.0 0.0 0.00 0.00 0.00 84 1019.7
20240227071404 53 0 0.0 0.0 0.00 0.00 0.00 84 1019.8
20240227070904 53 0 0.0 0.0 0.00 0.00 0.00 84 1019.6
20240227070404 53 0 0.0 0.0 0.00 0.00 0.00 84 1019.6
20240227065904 53 0 0.0 0.0 0.00 0.00 0.00 84 1019.6
20240227065404 53 0 0.0 0.0 0.00 0.00 0.00 84 1019.5
20240227064903 53 0 0.0 0.0 0.00 0.00 0.00 84 1019.5
20240227064404 53 0 0.0 0.0 0.00 0.00 0.00 84 1019.5
20240227063903 53 0 0.0 0.0 0.00 0.00 0.00 84 1019.5
20240227063404 53 0 0.0 0.0 0.00 0.00 0.00 84 1019.3
20240227061904 53 0 0.0 0.0 0.00 0.00 0.00 84 1019.2
20240227061404 53 0 0.0 0.0 0.00 0.00 0.00 84 1019.1
20240227060904 53 0 0.0 0.0 0.00 0.00 0.00 84 1019.1
20240227060403 53 0 0.0 0.0 0.00 0.00 0.00 84 1019.1
20240227055904 53 0 0.0 0.0 0.00 0.00 0.00 84 1019.0
20240227055403 53 0 0.0 0.0 0.00 0.00 0.00 84 1019.0
20240227054904 53 0 0.0 0.0 0.00 0.00 0.00 84 1018.9
20240227054404 53 0 0.0 0.0 0.00 0.00 0.00 84 1018.9
20240227053904 53 0 0.0 0.0 0.00 0.00 0.00 84 1018.9
20240227053404 53 0 0.0 0.0 0.00 0.00 0.00 84 1018.7
20240227052903 53 0 0.0 0.0 0.00 0.00 0.00 84 1018.7
20240227052405 53 0 0.0 0.0 0.00 0.00 0.00 84 1018.6
20240227051904 53 0 0.0 0.0 0.00 0.00 0.00 84 1018.6
20240227051403 53 0 0.0 0.0 0.00 0.00 0.00 84 1018.5
20240227050904 53 0 0.0 0.0 0.00 0.00 0.00 84 1018.2
20240227050404 53 0 0.0 0.0 0.00 0.00 0.00 84 1018.3
20240227045904 53 0 0.0 0.0 0.00 0.00 0.00 84 1018.3
20240227045403 53 0 0.0 0.0 0.00 0.00 0.00 84 1018.2
20240227044904 53 0 0.0 0.0 0.00 0.00 0.00 84 1018.1
20240227044404 53 0 0.0 0.0 0.00 0.00 0.00 84 1018.1
20240227042904 53 0 0.0 0.0 0.00 0.00 0.00 84 1017.9
20240227042404 53 0 0.0 0.0 0.00 0.00 0.00 84 1018.0
20240227041904 53 0 0.0 0.0 0.00 0.00 0.00 84 1017.9
20240227041403 53 0 0.0 0.0 0.00 0.00 0.00 84 1017.8
20240227040904 53 0 0.0 0.0 0.00 0.00 0.00 84 1017.7
20240227040405 53 0 0.0 0.0 0.00 0.00 0.00 84 1017.8
20240227035903 53 0 0.0 0.0 0.00 0.00 0.00 84 1017.8
20240227034904 53 0 0.0 0.0 0.00 0.00 0.00 84 1017.7
20240227034404 53 0 0.0 0.0 0.00 0.00 0.00 84 1017.8
20240227033904 53 0 0.0 0.0 0.00 0.00 0.00 84 1017.8
20240227033403 53 0 0.0 0.0 0.00 0.00 0.00 84 1017.9
20240227032904 53 0 0.0 0.0 0.00 0.00 0.00 84 1017.9
20240227032404 53 0 0.0 0.0 0.00 0.00 0.00 84 1017.9
20240227031903 53 0 0.0 0.0 0.00 0.00 0.00 84 1017.9
20240227031404 53 0 0.0 0.0 0.00 0.00 0.00 84 1017.9
20240227030903 53 0 0.0 0.0 0.00 0.00 0.00 84 1017.9
20240227025904 53 0 0.0 0.0 0.00 0.00 0.00 84 1017.7
20240227025404 53 0 0.0 0.0 0.00 0.00 0.00 84 1017.8
20240227024903 53 0 0.0 0.0 0.00 0.00 0.00 84 1017.8
20240227024403 53 11 0.0 0.0 0.00 0.00 0.00 84 1017.7
20240227023903 53 44 0.0 0.0 0.00 0.00 0.00 84 1017.6
20240227023404 53 44 0.0 1.0 0.00 0.00 0.00 84 1017.5
20240227022903 53 47 0.0 1.0 0.00 0.00 0.00 85 1017.4
20240227022403 53 47 0.0 2.0 0.00 0.00 0.00 85 1017.4
20240227021903 53 47 1.0 3.0 0.00 0.00 0.00 85 1017.4
20240227021403 53 44 1.0 3.0 0.00 0.00 0.00 85 1017.4
20240227020904 53 48 0.0 0.0 0.00 0.00 0.00 85 1017.4
20240227020404 53 48 0.0 0.0 0.00 0.00 0.00 84 1017.4
20240227015904 53 53 0.0 0.0 0.00 0.00 0.00 83 1017.4
20240227015404 53 53 0.0 0.0 0.00 0.00 0.00 84 1017.4
20240227014904 53 53 0.0 0.0 0.00 0.00 0.00 83 1017.3
20240227014404 53 53 0.0 0.0 0.00 0.00 0.00 83 1017.3
20240227013904 53 53 0.0 0.0 0.00 0.00 0.00 82 1017.4
20240227013404 53 53 0.0 0.0 0.00 0.00 0.00 82 1017.4
20240227012904 53 53 0.0 0.0 0.00 0.00 0.00 82 1017.3
20240227012404 54 53 0.0 0.0 0.00 0.00 0.00 82 1017.3
20240227011904 54 53 0.0 0.0 0.00 0.00 0.00 82 1017.4
20240227011404 53 53 0.0 0.0 0.00 0.00 0.00 82 1017.3
20240227010904 54 53 0.0 0.0 0.00 0.00 0.00 82 1017.3
20240227010404 54 53 0.0 0.0 0.00 0.00 0.00 82 1017.4
20240227005904 54 53 0.0 0.0 0.00 0.00 0.00 82 1017.5
20240227005404 54 53 0.0 0.0 0.00 0.00 0.00 81 1017.4
20240227004904 54 53 0.0 0.0 0.00 0.00 0.00 81 1017.4